Other Public Products
Issued by NWS Grand Forks, ND

Home | Current Version | Previous Version | Text Only | Print | Product List | Glossary On
Versions: 1 2 3 4 5 6 7 8 9 10 11 12 13 14 15 16 17 18 19 20 21 22 23 24 25 26 27 28 29 30 31 32 33 34 35 36 37 38 39 40 41 42 43 44 45 46 47 48 49 50
000
FPUS83 KFGF 110831
OPUFGF
PRAIRIE TO PINES WEATHER ROUNDUP
NATIONAL WEATHER SERVICE EASTERN NORTH DAKOTA/GRAND FORKS ND
200 AM CST SUN DEC 11 2016

 **SATELLITE DATA USED TO AUGMENT SKY COVER AT AUTOMATED STATIONS**
 *****  WEATHER ACROSS EASTERN NORTH DAKOTA  *****

CITY           SKY/WX    TMP DP  RH WIND       PRES   REMARKS
GRAND FORKS    CLOUDY    -3  -9  75 NE6       30.15F WCI -15
GRAND FORKS AF CLOUDY    -6  -9  84 N6        30.13F WCI -18
GRAND CITY NWS NOT AVBL
BUXTON           N/A     31  28  90 NE10        N/A  WCI  22
DEVILS LAKE    FLURRIES  -3  -6  87 E12       30.05F WCI -21
FARGO          CLOUDY     9   2  73 NE10      30.05F WCI  -5
WAHPETON ARPT  CLOUDY    12   7  79 E9        30.01F WCI   0
$$

 *****  WEATHER ACROSS CENTRAL AND WESTERN NORTH DAKOTA  *****

CITY           SKY/WX    TMP DP  RH WIND       PRES   REMARKS
JAMESTOWN      LGT SNOW   1  -3  83 E8        29.99S VSB 3/4 WCI -13
BISMARCK       LGT SNOW   0  -4  83 E10       29.97F FOG     WCI -16
MINOT          LGT SNOW  -2  -6  83 E13       29.96F VSB 1   WCI -20
MINOT AFB      CLOUDY    -2  -8  78 E14       29.96F BLWGSNOWWCI -21
GARRISON         N/A     -3  -8  79 E14       29.93F WCI -22
WILLISTON      CLOUDY     0  -7  72 SE8       29.93R WCI -14
DICKINSON      LGT SNOW  -1  -6  79 SE10      29.81F WCI -17
HETTINGER      CLOUDY     0  -4  83 CALM      29.84F
$$

 *****  OTHER OBSERVATIONS NORTHEAST NORTH DAKOTA  *****

CITY           SKY/WX    TMP DP  RH WIND       PRES   REMARKS
WALHALLA         N/A     -8  -8 100 N5        30.19F WCI -19
LANGDON        CLOUDY    -4  -9  77 E10       30.06F WCI -21
CAVALIER         N/A     -6  -9  84 N5        30.19F WCI -17
GRAFTON        FAIR      -6  -9  84 N5        30.19F WCI -17
CANDO          LGT SNOW  -2  -6  84 E12       30.08F WCI -20
FORT TOTTEN    NOT AVBL
ROLLA          CLOUDY    -4  -9  77 E9        30.04S WCI -20
RUGBY          LGT SNOW  -4  -8  84 E15       30.03F WCI -25
 ***** THE ABOVE OBSERVATIONS ARE NON NWS ARE NOT QUALITY
        CONTROLLED AND MAY MIS-REPORT RAIN FOR SNOW...
$$

 *****  OTHER OBSERVATIONS SOUTHEAST NORTH DAKOTA *****

CITY           SKY/WX    TMP DP  RH WIND       PRES   REMARKS
COOPERSTOWN    LGT SNOW  -2  -6  84 NE12      30.04S WCI -20
VALLEY CITY    LGT SNOW   0   0 100 NE12      30.03S WCI -18
OAKES          NOT AVBL
GWINNER        CLOUDY    10   7  85 NE14      29.98F WCI  -5
SHEYENNE NWR     N/A      5  -1  76 E8        29.95S WCI  -8
BUFFALO          N/A      2  -3  78 NE9         N/A  WCI -13
WYNDMERE         N/A     10   7  85 E10         N/A  WCI  -3
 ***** THE ABOVE OBSERVATIONS ARE NON NWS ARE NOT QUALITY
       CONTROLLED AND MAY MIS-REPORT RAIN FOR SNOW...
$$

  *****  WEATHER ACROSS NORTHERN MINNESOTA  *****

CITY           SKY/WX    TMP DP  RH WIND       PRES   REMARKS
FLAG ISLAND    NOT AVBL
WARROAD        CLOUDY     0  -6  78 E8        30.18F WCI -15
ROSEAU         CLOUDY    -9 -17  70 E3        30.18F
HALLOCK        CLOUDY    -4  -8  84 E9        30.18S WCI -20
THF RVR FALLS  CLOUDY    -5  -9  83 E9        30.13F WCI -22
HALSTAD          N/A      3  -2  77 NE9         N/A  WCI -11
FOSSTON        CLOUDY     0  -6  78 E8        30.08F WCI -15
BAUDETTE       CLOUDY    -8 -12  83 E6        30.17F WCI -21
WASKISH        CLOUDY    -8 -11  84 E5        30.15F WCI -19
CROOKSTON      CLOUDY     0  -6  78 E12       30.13F WCI -18
$$
  *****  WEATHER ACROSS CENTRAL AND WEST MINNESOTA  *****

CITY           SKY/WX    TMP DP  RH WIND       PRES   REMARKS
BEMIDJI        CLOUDY    -2  -6  85 E8        30.08F WCI -17
PARK RAPIDS    FLURRIES   4  -2  76 E6        30.05F WCI  -7
WADENA         FLURRIES   7   1  78 E9        30.03F WCI  -7
DETROIT LAKES  FLURRIES   9   3  78 E8        30.03F WCI  -4
MOORHEAD       MIX PCPN   9   1  72 E7        30.06S WCI  -3
FERGUS FALLS   FLURRIES   9   3  78 E12G18    30.06F WCI  -6
ELBOW LAKE     LGT SNOW  10   7  87 E12       29.99F WCI  -5
MORRIS MN      LGT SNOW  12   9  85 E16       29.97F VSB 3/4 WCI  -4
STAPLES        NOT AVBL
WHEATON        LGT SNOW  14  10  85 E12       30.00F WCI   0
$$
  *****  WEATHER ELSEWHERE ACROSS MINNESOTA  *****

CITY           SKY/WX    TMP DP  RH WIND       PRES   REMARKS
DULUTH         CLOUDY     5   2  87 NE3       30.12F
INTRNTL FALLS  CLOUDY   -13 -18  78 CALM      30.20F
ELY            CLOUDY    -8 -11  84 CALM      30.17S
CLOQUET        FLURRIES   7   1  78 CALM      30.13R
BRAINERD       CLOUDY     8   3  80 NE9       30.09F WCI  -5
HIBBING        CLOUDY   -10 -13  86 CALM      30.15S
ALEXANDRIA     LGT SNOW  10   6  84 E13       29.99F FOG     WCI  -5
SAINT CLOUD    LGT SNOW  12   9  87 E9        30.05S FOG     WCI   0
MINNEAPOLIS    LGT SNOW  15  11  83 E10       30.06F FOG     WCI   2
$$

  *****  WEATHER ACROSS SOUTH DAKOTA  *****

CITY           SKY/WX    TMP DP  RH WIND       PRES   REMARKS
SIOUX FALLS    CLOUDY    22  19  89 SE16      29.82F WCI   8
BROOKINGS      LGT SNOW  13   9  84 E16       29.82F FOG     WCI  -3
WATERTOWN      LGT SNOW  10   6  84 E9        29.85F VSB 1   WCI  -3
HURON          LGT SNOW  18  16  92 E8        29.85S FOG     WCI   8
SISSETON         N/A     11   7  84 E5        29.96F WCI   3
ABERDEEN       LGT SNOW  11   5  77 NE8       29.93F WCI  -1
MITCHELL       CLOUDY    23  20  88 E12       29.80F WCI  12
PIERRE         CLOUDY     9   5  84 N9        29.86R WCI  -4
MOBRIDGE       LGT SNOW   6   0  76 NW10      29.90R WCI  -9
RAPID CITY     CLOUDY     7   2  80 SE3       29.79R
$$

  *****  SOME WEATHER IN NEARBY STATES *****

CITY           SKY/WX    TMP DP  RH WIND       PRES   REMARKS
GLASGOW MT     CLOUDY     0  -5  79 NW7       29.91R WCI -13
GREAT FALLS MT CLOUDY    -2  -6  83 E6        29.83F WCI -14
CHEYENNE WY    CLOUDY    30  26  85 N13G21    29.76R WCI  20
SCOTTSBLUFF NE CLOUDY    34  22  61 W13G21    29.78R WCI  25
OMAHA NE       CLOUDY    31  19  61 SE13      29.81F WCI  21
DES MOINES IA  CLOUDY    29  21  72 E9        29.93F WCI  20
DAVENPORT IA   CLOUDY    25  21  85 E13       30.08F WCI  14
CHICAGO IL     LGT SNOW  24  21  88 SE13      30.20F FOG     WCI  12
EAU CLAIRE WI  LGT SNOW  15  12  88 E9        30.09F FOG     WCI   3
LA CROSSE WI   LGT SNOW  19  16  88 E8        30.09F FOG     WCI   9
$$

  *****  SOME NATIONAL WEATHER *****

CITY           SKY/WX    TMP DP  RH WIND       PRES   REMARKS
LA GUARDIA NY  PTCLDY    31  16  54 NW8       30.49R WCI  23
RALEIGH NC     CLOUDY    25  19  78 NE3       30.51S
ATLANTA GA     PTCLDY    33  22  63 E5        30.39S
NEW ORLEANS LA CLEAR     37  36  96 CALM      30.30F
OKLAHOMA CITY  CLOUDY    48  44  86 S25G38    29.85F
ALBUQUERQUE NM CLOUDY    37  30  75 SE9       30.03F
SALT LAKE CITY CLOUDY    35  34  96 SE6       29.94S
LOS ANGELES CA CLOUDY    60  59  96 W7        30.13S
BOISE ID       FOG       30  30 100 CALM      30.02R VSB 1/2
SEATTLE WA     LGT RAIN  41  39  93 S16       29.90R
$$

*** WEATHER ACROSS MANITOBA...SASKATCHEWAN AND ONTARIO ***
                ***ONTARIO***

CITY           SKY/WX    TMP DP  RH WIND       PRES   REMARKS
GERALDTON      FLURRIES   0  -4  85 N3        30.24F
THUNDER BAY    MOCLDY     0  -4  85 W5        30.29  WCI -10
SIOUX LOOKOUT  PTCLDY   -22 -27  76 CALM      30.21F
TORONTO        MOCLDY    21  16  79 W8        30.35S WCI  12
BIG TROUT LK   CLEAR    -13 -18  77 W7        30.24S WCI -29
PICKLE LAKE    NOT AVBL
DRYDEN         CLEAR    -11 -13  92 E3        30.20S
KENORA         PTCLDY    -6  -9  84 E6        30.18F WCI -18
$$
                *** MANITOBA***

CITY           SKY/WX    TMP DP  RH WIND       PRES   REMARKS
BRANDON        CRYSTALS -15 -20  76 E7        30.13F WCI -31
DAUPHIN        CLEAR    -22 -29  69 W7        30.18F WCI -39
ISLAND LAKE    NOT AVBL
PILOT MOUND      N/A     -9 -15  77 E6          N/A  WCI -23
THE PAS        CLEAR    -13 -18  77 S2        30.13F
THOMPSON       PTCLDY   -13 -18  77 SW6       30.09F WCI -27
WINNIPEG       CRYSTALS  -9 -13  84 E3        30.24F
LYNN LAKE      CLEAR    -15 -18  84 SW7       29.96F WCI -31
CHURCHILL      PTCLDY   -11 -17  77 SW12      29.99F WCI -31
GILLAM         CLEAR    -11 -17  77 SW10      30.10F WCI -30
$$
                ***SASKATCHEWAN***

CITY           SKY/WX    TMP DP  RH WIND       PRES   REMARKS
ESTEVAN        NOT AVBL
KINDERSLEY     CLOUDY     3  -2  78 SW3       29.93R
LLOYDMINSTER   FLURRIES  -2  -6  84 W7        29.94F WCI -16
PRINCE ALBERT  CRYSTALS -17 -22  76 CALM      30.05F
REGINA         FLURRIES  -8 -15  71 SE8       29.99S WCI -23
YORKTON        CLEAR    -17 -22  76 S5        30.07F WCC1F1C2F2C3F3C4F4C5F5C6F6C7F7C8F8C9F9CaFaCbFbCcFcCdFdCe!


USA.gov is the U.S. government's official web portal to all federal, state and local government web resources and services.